Wisecarver (157, 524) Station Data

Red Flag Warning: No
Fire Weather Zone: 250
SDGE Region: Mountain Empire
Lat/Lon: 32.732/-116.762

Observations

Time Wind Speed/Gust Temp(F) RH Fuel Moist Fuel Temp(F) Dewpt(F) Tmax(F) Tmin(F) Accum Precip 10-min Precip SL Press(mb)
6/27 5:00pm 267 6 G 10 85° 12% - - 26° 91.5° 77° - - -
6/27 4:50pm 267 5 G 10 85° 12% - - 27° 91.5° 77° - - -
6/27 4:40pm 280 6 G 11 85° 12% - - 27° 91.5° 77° - - -
6/27 4:30pm 274 4 G 10 86° 12% - - 28° 91.5° 77° - - -
6/27 4:20pm 291 5 G 10 86° 12% - - 28° 91.5° 77° - - -
6/27 4:10pm 292 6 G 12 85° 12% - - 26° 91.5° 77° - - -
6/27 4:00pm 311 6 G 12 86° 12% - - 26° 91.5° 77° - - -
6/27 3:50pm 296 6 G 11 87° 10% - - 25° 91.5° 77° - - -
6/27 3:40pm 290 5 G 10 88° 10% - - 25° 91.5° 77° - - -
6/27 3:30pm 288 5 G 12 87° 11% - - 26° 91.5° 77° - - -
6/27 3:20pm 285 6 G 12 87° 11% - - 26° 91.5° 77° - - -
6/27 3:10pm 297 6 G 13 87° 10% - - 24° 91.5° 77° - - -
6/27 3:00pm 267 6 G 12 87° 10% - - 25° 91.5° 77° - - -
6/27 2:50pm 272 7 G 13 88° 10% - - 24° 91.5° 77° - - -
6/27 2:40pm 266 5 G 12 89° 11% - - 26° 91.5° 77° - - -
6/27 2:30pm 277 6 G 12 89° 10% - - 26° 91.5° 77° - - -
6/27 2:20pm 263 5 G 13 89° 10% - - 25° 91.5° 77° - - -
6/27 2:10pm 280 7 G 13 89° 9% - - 24° 91.5° 77° - - -
6/27 2:00pm 279 5 G 14 90° 9% - - 24° 91.5° 77° - - -
6/27 1:50pm 269 6 G 13 89° 9% - - 23° 91.5° 77° - - -
6/27 1:40pm 273 6 G 15 89° 10% - - 26° 91.5° 77° - - -
6/27 1:30pm 273 6 G 14 89° 9% - - 24° 91.5° 77° - - -
6/27 1:20pm 262 4 G 11 90° 10% - - 25° 91.5° 77° - - -
6/27 1:10pm 281 6 G 15 89° 10% - - 26° 91.2° 77° - - -
6/27 1:00pm 277 7 G 15 89° 11% - - 28° 91.2° 77° - - -
6/27 12:50pm 295 6 G 16 89° 11% - - 28° 91.2° 77° - - -
6/27 12:40pm 294 7 G 15 88° 10% - - 24° 91.2° 77° - - -
6/27 12:30pm 278 6 G 14 89° 9% - - 23° 91.2° 77° - - -
6/27 12:20pm 278 5 G 12 89° 8% - - 21° 91.2° 77° - - -
6/27 12:10pm 322 7 G 13 88° 9% - - 23° 90.2° 77° - - -
6/27 12:00pm 323 7 G 14 89° 9% - - 22° 90.2° 77° - - -
6/27 11:50am 316 6 G 13 89° 9% - - 22° 89.9° 77° - - -
6/27 11:40am 315 5 G 12 89° 9% - - 21° 89.7° 77° - - -
6/27 11:30am 320 7 G 12 88° 9% - - 21° 88.8° 77° - - -
6/27 11:20am 317 7 G 12 87° 9% - - 20° 87.7° 77° - - -
6/27 11:10am 337 7 G 13 86° 9% - - 20° 87.7° 77° - - -
6/27 11:00am 337 7 G 11 86° 9% - - 20° 87.7° 77° - - -
6/27 10:50am 343 6 G 11 87° 9% - - 20° 87.7° 77° - - -
6/27 10:40am 337 5 G 11 86° 9% - - 20° 87.7° 77° - - -
6/27 10:30am 335 5 G 10 86° 8% - - 19° 87.7° 77° - - -
6/27 10:20am 322 5 G 10 87° 9% - - 20° 87.7° 77° - - -
6/27 10:10am 313 4 G 10 86° 8% - - 19° 87.5° 77° - - -
6/27 10:00am 293 5 G 10 86° 8% - - 18° 87.5° 77° - - -
6/27 9:50am 312 5 G 10 85° 8% - - 17° 86.3° 77° - - -
6/27 9:40am 331 6 G 10 85° 8% - - 16° 86° 77° - - -
6/27 9:30am 324 4 G 8 85° 8% - - 17° 86° 77° - - -
6/27 9:20am 320 5 G 8 84° 8% - - 17° 85.1° 77° - - -
6/27 9:10am 321 5 G 8 84° 8% - - 16° 85.1° 77° - - -
6/27 9:00am 308 3 G 7 84° 8% - - 17° 85° 77° - - -
6/27 8:50am 295 3 G 6 83° 9% - - 18° 84.2° 77° - - -
6/27 8:40am 314 3 G 7 83° 8% - - 16° 84.2° 77° - - -
6/27 8:30am 336 3 G 5 83° 9% - - 18° 84.2° 77° - - -
6/27 8:20am 13 3 G 5 82° 10% - - 19° 83.8° 77° - - -
6/27 8:10am 30 4 G 6 82° 9% - - 17° 82.6° 77° - - -
6/27 8:00am 32 3 G 5 82° 9% - - 18° 82.6° 77° - - -
6/27 7:50am 39 3 G 4 81° 10% - - 18° 82.5° 77° - - -
6/27 7:40am 50 3 G 4 81° 10% - - 19° 82.5° 77° - - -
6/27 7:30am 55 3 G 5 81° 10% - - 20° 82.5° 77° - - -
6/27 7:20am 72 2 G 4 81° 11% - - 22° 82.5° 77° - - -
6/27 7:10am 84 1 G 3 81° 11% - - 22° 82.5° 77° - - -
6/27 7:00am 96 1 G 2 81° 10% - - 20° 82.5° 77° - - -
6/27 6:50am 60 2 G 3 81° 9% - - 17° 82.5° 77° - - -
6/27 6:40am 108 1 G 2 80° 9% - - 16° 82° 77° - - -
6/27 6:30am 118 2 G 3 80° 9% - - 16° 80.6° 77° - - -
6/27 6:20am 113 1 G 2 80° 9% - - 15° 80.6° 77° - - -
6/27 6:10am 114 2 G 3 79° 9% - - 15° 80.6° 77° - - -
6/27 6:00am 98 1 G 1 79° 9% - - 15° 80.6° 77° - - -
6/27 5:50am 82 1 G 2 78° 9% - - 15° 80.6° 77° - - -
6/27 5:40am 92 1 G 2 79° 9% - - 15° 80.6° 77° - - -
6/27 5:30am 102 2 G 2 79° 9% - - 15° 80.6° 77° - - -
6/27 5:20am 73 1 G 2 79° 9% - - 15° 80.6° 77° - - -
6/27 5:10am 68 0 G 1 79° 9% - - 15° 80.6° 77° - - -
6/27 5:00am 44 1 G 2 79° 9% - - 15° 80.6° 77° - - -
6/27 4:50am 101 0 G 1 79° 9% - - 15° 80.6° 77° - - -
6/27 4:40am 34 1 G 2 79° 9% - - 15° 80.6° 77° - - -
6/27 4:30am 349 2 G 4 79° 9% - - 15° 80.6° 77° - - -
6/27 4:20am 336 2 G 3 79° 9% - - 14° 80.6° 77° - - -
6/27 4:10am 338 1 G 2 79° 9% - - 14° 80.6° 77° - - -
6/27 4:00am 341 2 G 3 79° 9% - - 15° 80.6° 77° - - -
6/27 3:50am 334 3 G 4 79° 9% - - 14° 80.6° 77° - - -
6/27 3:40am 326 3 G 5 78° 9% - - 14° 80.6° 77° - - -
6/27 3:30am 329 3 G 5 78° 9% - - 15° 80.6° 77° - - -
6/27 3:20am 322 3 G 8 78° 9% - - 15° 80.6° 77° - - -
6/27 3:10am 322 3 G 6 78° 9% - - 16° 80.6° 77° - - -
6/27 3:00am 310 2 G 4 79° 9% - - 16° 80.6° 77° - - -
6/27 2:50am 306 2 G 4 79° 9% - - 16° 80.6° 77° - - -
6/27 2:40am 305 2 G 3 79° 9% - - 16° 80.6° 77° - - -
6/27 2:30am 298 1 G 3 79° 9% - - 16° 80.6° 77° - - -
6/27 2:20am 288 1 G 3 79° 9% - - 16° 80.6° 77° - - -
6/27 2:10am 288 3 G 4 79° 9% - - 16° 80.6° 77° - - -
6/27 2:00am 296 3 G 6 79° 9% - - 16° 80.6° 77° - - -
6/27 1:50am 302 4 G 6 79° 9% - - 16° 80.6° 77° - - -
6/27 1:40am 313 4 G 5 79° 9% - - 15° 80.6° 77° - - -
6/27 1:30am 319 3 G 5 80° 9% - - 15° 80.6° 77° - - -
6/27 1:20am 324 3 G 4 80° 9% - - 15° 80.6° 77° - - -
6/27 1:10am 331 2 G 5 79° 8% - - 14° 80.5° 77° - - -
6/27 1:00am 326 1 G 3 79° 8% - - 13° 80.5° 77° - - -
6/27 12:50am 329 0 G 2 78° 8% - - 12° 80° 77° - - -
6/27 12:40am 341 0 G 2 78° 9% - - 14° 80° 77° - - -
6/27 12:30am 359 1 G 2 78° 9% - - 16° 80° 77.7° - - -
6/27 12:20am 331 1 G 3 79° 10% - - 17° 80° 77.7° - - -
6/27 12:10am 298 2 G 5 79° 10% - - 17° 80° 77.7° - - -
6/27 12:00am 286 3 G 3 79° 9% - - 16° 94.8° 77.5° - - -
6/26 11:50pm 302 3 G 4 80° 9% - - 15° 94.8° 77.5° - - -
6/26 11:40pm 307 2 G 3 80° 7% - - 12° 94.8° 77.5° - - -
6/26 11:30pm 322 2 G 3 80° 7% - - 11° 94.8° 77.5° - - -
6/26 11:20pm 0 1 G 3 80° 7% - - 11° 94.8° 77.5° - - -
6/26 11:10pm 94 1 G 3 80° 8% - - 13° 94.8° 77.5° - - -
6/26 11:00pm 115 1 G 3 80° 9% - - 15° 94.8° 77.5° - - -
6/26 10:50pm 107 1 G 3 79° 9% - - 15° 94.8° 77.5° - - -
6/26 10:40pm 107 2 G 3 79° 9% - - 17° 94.8° 77.5° - - -
6/26 10:30pm 102 2 G 4 79° 10% - - 18° 94.8° 77.5° - - -
6/26 10:20pm 111 2 G 4 79° 11% - - 20° 94.8° 77.5° - - -
6/26 10:10pm 118 2 G 4 79° 11% - - 21° 94.8° 77.5° - - -
6/26 10:00pm 109 1 G 2 79° 12% - - 21° 94.8° 77.5° - - -
6/26 9:50pm 100 2 G 4 79° 12% - - 23° 94.8° 77.5° - - -
6/26 9:40pm 101 2 G 3 79° 13% - - 24° 94.8° 77.5° - - -
6/26 9:30pm 103 2 G 3 79° 14% - - 26° 94.8° 77.5° - - -
6/26 9:20pm 107 2 G 3 79° 16% - - 29° 94.8° 77.5° - - -
6/26 9:10pm 93 2 G 3 79° 17% - - 30° 94.8° 78.1° - - -
6/26 9:00pm 78 2 G 3 79° 16% - - 29° 94.8° 78.1° - - -
6/26 8:50pm 59 1 G 1 79° 16% - - 29° 94.8° 78.1° - - -
6/26 8:40pm 98 1 G 2 79° 16% - - 29° 94.8° 78.5° - - -
6/26 8:30pm 99 0 G 1 79° 16% - - 29° 94.8° 78.5° - - -
6/26 8:20pm 69 0 G 2 79° 15% - - 28° 94.8° 78.5° - - -
6/26 8:10pm 11 2 G 4 80° 14% - - 27° 94.8° 78.6° - - -
6/26 8:00pm 1 2 G 5 80° 14% - - 26° 94.8° 78.6° - - -
6/26 7:50pm 7 1 G 4 81° 15% - - 29° 94.8° 79.6° - - -
6/26 7:40pm 356 2 G 4 81° 16% - - 31° 94.8° 80.1° - - -
6/26 7:30pm 344 2 G 4 82° 16% - - 31° 94.8° 80.1° - - -
6/26 7:20pm 339 3 G 5 83° 16% - - 32° 94.8° 80.1° - - -
6/26 7:10pm 329 4 G 8 83° 15% - - 31° 94.8° 80.1° - - -
6/26 7:00pm 319 4 G 8 84° 14% - - 30° 94.8° 80.1° - - -
6/26 6:50pm 324 4 G 8 85° 14% - - 30° 94.8° 80.1° - - -
6/26 6:40pm 306 5 G 10 86° 13% - - 29° 94.8° 80.1° - - -
6/26 6:30pm 306 5 G 10 86° 12% - - 28° 94.8° 80.1° - - -
6/26 6:20pm 296 7 G 12 87° 11% - - 27° 94.8° 80.1° - - -
6/26 6:10pm 296 6 G 12 87° 11% - - 26° 94.8° 80.1° - - -
6/26 6:00pm 301 7 G 15 87° 12% - - 28° 94.8° 80.1° - - -
6/26 5:50pm 298 7 G 13 88° 14% - - 32° 94.8° 80.1° - - -
6/26 5:40pm 304 6 G 13 88° 14% - - 34° 94.8° 80.1° - - -
6/26 5:30pm 300 8 G 15 88° 14% - - 33° 94.8° 80.1° - - -
6/26 5:20pm 295 9 G 15 89° 14% - - 33° 94.8° 80.1° - - -
6/26 5:10pm 297 9 G 16 89° 13% - - 32° 94.8° 80.1° - - -
6/26 5:00pm 301 9 G 16 90° 13% - - 33° 94.8° 80.1° - - -
6/26 4:50pm 297 10 G 15 90° 13% - - 33° 94.8° 80.1° - - -
6/26 4:40pm 300 7 G 15 91° 14% - - 35° 94.8° 80.1° - - -
6/26 4:30pm 294 8 G 14 91° 14% - - 35° 94.8° 80.1° - - -
6/26 4:20pm 291 8 G 15 91° 14% - - 36° 94.8° 80.1° - - -
6/26 4:10pm 298 8 G 15 92° 14% - - 36° 94.8° 80.1° - - -
6/26 4:00pm 302 9 G 16 92° 13% - - 34° 94.8° 80.1° - - -
6/26 3:50pm 301 8 G 18 92° 13% - - 35° 94.8° 80.1° - - -
6/26 3:40pm 304 8 G 16 92° 13% - - 34° 94.8° 80.1° - - -
6/26 3:30pm 297 9 G 16 92° 13% - - 35° 94.8° 80.1° - - -
6/26 3:20pm 301 8 G 15 92° 14% - - 36° 94.8° 80.1° - - -
6/26 3:10pm 297 8 G 13 93° 13% - - 36° 94.8° 80.1° - - -
6/26 3:00pm 307 7 G 14 94° 12% - - 34° 94.8° 80.1° - - -
6/26 2:50pm 325 7 G 13 93° 12% - - 33° 94.8° 80.1° - - -
6/26 2:40pm 334 7 G 14 92° 12% - - 33° 94.8° 80.1° - - -
6/26 2:30pm 332 7 G 12 92° 12% - - 32° 94.8° 80.1° - - -
6/26 2:20pm 325 6 G 11 92° 12% - - 33° 94.8° 80.1° - - -
6/26 2:10pm 322 6 G 12 93° 13% - - 35° 94.8° 80.1° - - -
6/26 2:00pm 303 7 G 14 93° 11% - - 31° 94.8° 80.1° - - -
6/26 1:50pm 329 7 G 13 92° 11% - - 30° 94.8° 80.1° - - -
6/26 1:40pm 321 8 G 14 93° 11% - - 30° 94.8° 80.1° - - -
6/26 1:30pm 321 8 G 15 93° 11% - - 31° 94.8° 80.1° - - -
6/26 1:20pm 330 7 G 12 93° 12% - - 32° 94.8° 80.1° - - -
6/26 1:10pm 316 7 G 12 93° 11% - - 31° 94.8° 80.1° - - -
6/26 1:00pm 323 6 G 13 93° 10% - - 29° 94.8° 80.1° - - -
6/26 12:50pm 322 6 G 10 93° 9% - - 27° 94.8° 80.1° - - -
6/26 12:40pm 317 7 G 12 92° 9% - - 25° 94.8° 80.1° - - -
6/26 12:30pm 316 7 G 11 94° 8% - - 24° 94.8° 80.1° - - -
6/26 12:20pm 316 7 G 12 93° 9% - - 26° 94.8° 80.1° - - -
6/26 12:10pm 323 8 G 13 92° 8% - - 24° 94.8° 80.1° - - -
6/26 12:00pm 322 6 G 12 94° 8% - - 25° 94.8° 80.1° - - -
6/26 11:50am 330 8 G 13 93° 8% - - 23° 94.2° 80.1° - - -
6/26 11:40am 330 6 G 10 93° 9% - - 26° 94.2° 80.1° - - -
6/26 11:30am 326 6 G 11 92° 10% - - 27° 93.9° 80.1° - - -
6/26 11:20am 331 7 G 11 92° 10% - - 27° 93.9° 80.1° - - -
6/26 11:10am 331 6 G 10 93° 9% - - 26° 93.9° 80.1° - - -
6/26 11:00am 319 6 G 11 92° 10% - - 27° 93.3° 80.1° - - -
6/26 10:50am 311 5 G 10 92° 10% - - 28° 93.3° 80.1° - - -
6/26 10:40am 321 6 G 10 92° 10% - - 28° 93.3° 80.1° - - -
6/26 10:30am 314 5 G 9 91° 11% - - 29° 93.1° 80.1° - - -
6/26 10:20am 317 5 G 10 91° 11% - - 29° 91.9° 80.1° - - -
6/26 10:10am 319 5 G 10 91° 11% - - 30° 91.7° 80.1° - - -
6/26 10:00am 332 6 G 10 90° 12% - - 30° 91.5° 80.1° - - -
6/26 9:50am 328 5 G 10 90° 12% - - 31° 91.5° 80.1° - - -
6/26 9:40am 332 5 G 8 90° 12% - - 30° 91.5° 80.1° - - -
6/26 9:30am 323 3 G 7 90° 12% - - 31° 91.5° 80.1° - - -
6/26 9:20am 310 4 G 7 90° 12% - - 31° 90.6° 80.1° - - -
6/26 9:10am 313 3 G 6 89° 12% - - 31° 90.5° 80.1° - - -
6/26 9:00am 326 3 G 6 90° 13% - - 32° 90.5° 80.1° - - -
6/26 8:50am 332 3 G 6 90° 12% - - 31° 90.5° 80.1° - - -
6/26 8:40am 327 3 G 5 89° 12% - - 29° 90.1° 80.1° - - -
6/26 8:30am 316 3 G 5 88° 11% - - 28° 89.5° 80.1° - - -
6/26 8:20am 318 3 G 6 89° 12% - - 28° 89.5° 80.1° - - -
6/26 8:10am 304 2 G 5 89° 12% - - 31° 89.5° 80.1° - - -
6/26 8:00am 291 1 G 4 89° 12% - - 30° 89.5° 80.1° - - -
6/26 7:50am 31 2 G 3 88° 12% - - 29° 89.4° 80.1° - - -
6/26 7:40am 18 2 G 4 88° 12% - - 29° 89.4° 80.1° - - -
6/26 7:30am 29 2 G 3 88° 12% - - 29° 88.8° 80.1° - - -
6/26 7:20am 82 1 G 3 86° 12% - - 27° 87.3° 80.1° - - -
6/26 7:10am 104 2 G 3 86° 12% - - 27° 87° 80.1° - - -
6/26 7:00am 104 2 G 3 86° 11% - - 26° 86.8° 80.1° - - -
6/26 6:50am 102 2 G 2 86° 11% - - 25° 86.8° 80.1° - - -
6/26 6:40am 80 2 G 3 86° 10% - - 23° 86.7° 80.1° - - -
6/26 6:30am 78 2 G 3 86° 10% - - 22° 86.5° 80.1° - - -
6/26 6:20am 69 2 G 3 86° 10% - - 22° 86.5° 80.1° - - -
6/26 6:10am 14 1 G 3 85° 10% - - 22° 86.3° 80.1° - - -
6/26 6:00am 22 1 G 2 84° 10% - - 22° 85.2° 80.1° - - -